• In Hungary
  • List of Countries
  • For 7 days
  • Water Temperature
  • Satellite Maps
  • Weather Map
  • News
  • Weather Widgets
  • user-avatar
    Login

    Hourly Weather Dosso

    Today, 21 September, Friday

    Time Temperature Precipitation Wind Pressure Humidity
    00:00 +33°C° 0 mm 3 mps 737 mmHg 50%
    01:00 +31°C° 0 mm 3 mps 737 mmHg 51%
    02:00 +31°C° 0 mm 2 mps 737 mmHg 53%
    03:00 +30°C° 0 mm 2 mps 736 mmHg 54%
    04:00 +30°C° 0 mm 2 mps 736 mmHg 56%
    05:00 +30°C° 0 mm 2 mps 737 mmHg 57%
    06:00 +30°C° 0 mm 2 mps 737 mmHg 58%
    07:00 +32°C° 0 mm 2 mps 737 mmHg 53%
    08:00 +35°C° 0 mm 2 mps 738 mmHg 48%
    09:00 +36°C° 0 mm 2 mps 738 mmHg 42%
    10:00 +38°C° 0 mm 2 mps 737 mmHg 37%
    11:00 +39°C° 0 mm 2 mps 737 mmHg 32%
    12:00 +41°C° 0 mm 1 mps 736 mmHg 27%
    13:00 +41°C° 0 mm 2 mps 736 mmHg 25%
    14:00 +43°C° 0 mm 3 mps 735 mmHg 23%
    15:00 +44°C° 0 mm 3 mps 735 mmHg 21%
    16:00 +42°C° 0 mm 3 mps 735 mmHg 23%
    17:00 +40°C° 0 mm 3 mps 735 mmHg 25%
    18:00 +39°C° 0 mm 2 mps 735 mmHg 27%
    19:00 +38°C° 0 mm 3 mps 735 mmHg 30%
    20:00 +38°C° 0 mm 3 mps 736 mmHg 33%
    21:00 +37°C° 0 mm 4 mps 737 mmHg 35%
    22:00 +36°C° 0 mm 4 mps 737 mmHg 39%
    23:00 +35°C° 0 mm 4 mps 736 mmHg 42%

    Tomorrow, 22 September, Saturday

    Time Temperature Precipitation Wind Pressure Humidity
    00:00 +34°C° 0 mm 5 mps 736 mmHg 45%
    01:00 +34°C° 0 mm 5 mps 736 mmHg 51%
    02:00 +33°C° 0 mm 5 mps 736 mmHg 56%
    03:00 +32°C° 0 mm 5 mps 736 mmHg 61%
    04:00 +30°C° 0.1 mm 5 mps 736 mmHg 63%
    05:00 +30°C° 0.1 mm 5 mps 736 mmHg 66%
    06:00 +29°C° 0.1 mm 4 mps 737 mmHg 68%
    07:00 +32°C° 0.1 mm 5 mps 737 mmHg 63%
    08:00 +34°C° 0.1 mm 5 mps 738 mmHg 58%
    09:00 +35°C° 0.1 mm 6 mps 739 mmHg 52%
    10:00 +36°C° 0 mm 5 mps 738 mmHg 47%
    11:00 +38°C° 0 mm 4 mps 738 mmHg 42%
    12:00 +40°C° 0 mm 4 mps 738 mmHg 38%
    13:00 +40°C° 0 mm 3 mps 737 mmHg 35%
    14:00 +40°C° 0 mm 3 mps 736 mmHg 33%
    15:00 +41°C° 0 mm 2 mps 735 mmHg 30%
    16:00 +40°C° 0 mm 2 mps 735 mmHg 33%
    17:00 +39°C° 0 mm 2 mps 736 mmHg 35%
    18:00 +38°C° 0 mm 3 mps 736 mmHg 37%
    19:00 +37°C° 0 mm 3 mps 736 mmHg 42%
    20:00 +36°C° 0 mm 4 mps 737 mmHg 47%
    21:00 +35°C° 0 mm 4 mps 737 mmHg 51%
    22:00 +34°C° 0.2 mm 5 mps 737 mmHg 57%
    23:00 +33°C° 0.2 mm 5 mps 737 mmHg 64%

    Day after tomorrow, 23 September, Sunday

    Time Temperature Precipitation Wind Pressure Humidity
    00:00 +30°C° 0.2 mm 6 mps 737 mmHg 70%
    01:00 +30°C° 0 mm 5 mps 737 mmHg 71%
    02:00 +30°C° 0 mm 5 mps 736 mmHg 73%
    03:00 +29°C° 0 mm 5 mps 736 mmHg 74%
    04:00 +29°C° 0 mm 5 mps 736 mmHg 75%
    05:00 +29°C° 0 mm 4 mps 737 mmHg 75%
    06:00 +29°C° 0 mm 4 mps 737 mmHg 76%
    07:00 +30°C° 0.1 mm 4 mps 738 mmHg 70%
    08:00 +32°C° 0.1 mm 5 mps 739 mmHg 65%
    09:00 +34°C° 0.1 mm 5 mps 739 mmHg 59%
    10:00 +35°C° 0 mm 5 mps 739 mmHg 55%
    11:00 +36°C° 0 mm 5 mps 738 mmHg 51%
    12:00 +37°C° 0 mm 5 mps 738 mmHg 47%
    13:00 +37°C° 0 mm 5 mps 737 mmHg 46%
    14:00 +39°C° 0 mm 5 mps 737 mmHg 44%
    15:00 +39°C° 0 mm 5 mps 736 mmHg 43%
    16:00 +37°C° 0 mm 5 mps 736 mmHg 47%
    17:00 +35°C° 0 mm 5 mps 736 mmHg 51%
    18:00 +34°C° 0 mm 5 mps 737 mmHg 55%
    19:00 +33°C° 0 mm 4 mps 737 mmHg 57%
    20:00 +32°C° 0 mm 4 mps 737 mmHg 59%
    21:00 +30°C° 0 mm 3 mps 738 mmHg 61%
    22:00 +30°C° 0.1 mm 4 mps 738 mmHg 62%
    23:00 +30°C° 0.1 mm 4 mps 738 mmHg 62%

    24 September, Monday

    Time Temperature Precipitation Wind Pressure Humidity
    00:00 +30°C° 0.1 mm 5 mps 738 mmHg 62%
    01:00 +29°C° 0.9 mm 5 mps 738 mmHg 65%
    02:00 +28°C° 0.9 mm 5 mps 737 mmHg 67%
    03:00 +27°C° 0.9 mm 5 mps 737 mmHg 69%
    04:00 +27°C° 0 mm 5 mps 737 mmHg 71%
    05:00 +27°C° 0 mm 4 mps 737 mmHg 72%
    06:00 +27°C° 0 mm 3 mps 737 mmHg 74%
    07:00 +28°C° 0.2 mm 4 mps 738 mmHg 67%
    08:00 +30°C° 0.2 mm 4 mps 739 mmHg 60%
    09:00 +33°C° 0.2 mm 5 mps 739 mmHg 52%
    10:00 +35°C° 0.1 mm 4 mps 739 mmHg 47%
    11:00 +37°C° 0.1 mm 4 mps 738 mmHg 42%
    12:00 +38°C° 0.1 mm 4 mps 738 mmHg 36%
    13:00 +39°C° 0 mm 3 mps 737 mmHg 35%
    14:00 +40°C° 0 mm 3 mps 737 mmHg 33%
    15:00 +40°C° 0 mm 2 mps 736 mmHg 31%
    16:00 +39°C° 0 mm 1 mps 736 mmHg 34%
    17:00 +37°C° 0 mm 1 mps 736 mmHg 36%
    18:00 +36°C° 0 mm 1 mps 736 mmHg 39%
    19:00 +35°C° 0 mm 1 mps 737 mmHg 40%
    20:00 +35°C° 0 mm 1 mps 737 mmHg 42%
    21:00 +35°C° 0 mm 2 mps 738 mmHg 43%
    22:00 +35°C° 0 mm 3 mps 738 mmHg 48%
    23:00 +34°C° 0 mm 5 mps 738 mmHg 52%

    25 September, Tuesday

    Time Temperature Precipitation Wind Pressure Humidity
    00:00 +33°C° 0 mm 6 mps 738 mmHg 56%
    01:00 +33°C° 0 mm 6 mps 737 mmHg 59%
    02:00 +32°C° 0 mm 6 mps 737 mmHg 62%
    03:00 +30°C° 0 mm 6 mps 736 mmHg 65%
    04:00 +30°C° 0 mm 5 mps 737 mmHg 65%
    05:00 +30°C° 0 mm 5 mps 737 mmHg 65%
    06:00 +30°C° 0 mm 4 mps 738 mmHg 66%
    07:00 +32°C° 0 mm 5 mps 738 mmHg 60%
    08:00 +34°C° 0 mm 5 mps 738 mmHg 55%
    09:00 +35°C° 0 mm 5 mps 739 mmHg 50%
    10:00 +36°C° 0 mm 5 mps 738 mmHg 45%
    11:00 +38°C° 0 mm 4 mps 738 mmHg 41%
    12:00 +40°C° 0 mm 4 mps 737 mmHg 36%
    13:00 +40°C° 0 mm 3 mps 737 mmHg 34%
    14:00 +42°C° 0 mm 3 mps 736 mmHg 31%
    15:00 +41°C° 0 mm 2 mps 735 mmHg 29%
    16:00 +40°C° 0 mm 2 mps 735 mmHg 31%
    17:00 +39°C° 0 mm 1 mps 735 mmHg 33%
    18:00 +36°C° 0 mm 1 mps 735 mmHg 36%
    19:00 +37°C° 0 mm 2 mps 736 mmHg 39%
    20:00 +36°C° 0 mm 4 mps 736 mmHg 41%
    21:00 +36°C° 0 mm 5 mps 737 mmHg 44%
    22:00 +35°C° 0 mm 5 mps 737 mmHg 49%
    23:00 +34°C° 0 mm 6 mps 736 mmHg 54%

    26 September, Wednesday

    Time Temperature Precipitation Wind Pressure Humidity
    00:00 +33°C° 0 mm 6 mps 736 mmHg 60%
    01:00 +32°C° 0 mm 6 mps 736 mmHg 62%
    02:00 +32°C° 0 mm 6 mps 736 mmHg 63%
    03:00 +32°C° 0 mm 5 mps 736 mmHg 65%
    04:00 +30°C° 0 mm 5 mps 736 mmHg 67%
    05:00 +30°C° 0 mm 4 mps 737 mmHg 69%
    06:00 +29°C° 0 mm 4 mps 737 mmHg 71%
    07:00 +32°C° 0 mm 4 mps 738 mmHg 66%
    08:00 +33°C° 0 mm 4 mps 738 mmHg 62%
    09:00 +34°C° 0 mm 4 mps 739 mmHg 57%
    10:00 +36°C° 0 mm 4 mps 738 mmHg 51%
    11:00 +37°C° 0 mm 4 mps 738 mmHg 46%
    12:00 +40°C° 0 mm 4 mps 737 mmHg 40%
    13:00 +39°C° 0 mm 3 mps 736 mmHg 38%
    14:00 +40°C° 0 mm 3 mps 736 mmHg 35%
    15:00 +40°C° 0 mm 2 mps 735 mmHg 33%
    16:00 +39°C° 0 mm 2 mps 735 mmHg 35%
    17:00 +38°C° 0 mm 2 mps 736 mmHg 36%
    18:00 +37°C° 0 mm 2 mps 736 mmHg 38%
    19:00 +37°C° 0 mm 2 mps 736 mmHg 41%
    20:00 +36°C° 0 mm 3 mps 737 mmHg 43%
    21:00 +35°C° 0 mm 3 mps 737 mmHg 46%
    22:00 +34°C° 0.2 mm 4 mps 737 mmHg 51%
    23:00 +34°C° 0.2 mm 5 mps 737 mmHg 55%
    Show more